Location: Bakov nad Jizerou
(50.4784°N, 14.9394°E)
Time: 15:14:02
(UTC+00:00)

Centaur D AC-29 - Pass Details

Date: 16 June 2021
Orbit: 532 x 36305 km, 26.6° (Epoch: 02 August)

Event Time Altitude Azimuth Distance (km) Brightness Sun altitude
Rises 21:30:58 0° 269° (W) 13,573 8.1 -13.5°
Reaches altitude 10° 21:52:06 10° 249° (WSW) 6,385 6.1 -14.6°
Maximum altitude 21:57:40 12° 229° (SW) 4,456 5.1 -14.8°
Drops below altitude 10° 22:01:07 10° 206° (SSW) 3,599 4.5 -15.0°
Enters shadow 22:01:25 10° 204° (SSW) 3,550 4.5 -15.0°
